Simultaneous Nadir Overpasses (SNOs) Predictions

Prediction of SNOs between AURA and LANDSAT-8 Satellite Orbit:

Table of predicted SNOs for the next 14.0 days since TLE Epoch: 12/1/2024
Index Date (AURA) Time (AURA) Lat,Lon (AURA) SZA (AURA ) Date (LANDSAT-8) Time (LANDSAT-8) Lat,Lon (LANDSAT-8) SZA (LANDSAT-8 ) Distance(km) Time Diff (sec)
1 12/01/2024 18:43:33 72.21, -98.07 94.15 12/01/2024 18:42:29 72.20,-100.98 94.07 98.70 64
2 12/01/2024 19:32:59 -72.51, 69.03 85.56 12/01/2024 19:31:51 -72.50, 67.22 85.61 60.58 68
3 12/01/2024 20:22:23 72.61,-123.49 94.54 12/01/2024 20:21:14 72.63,-124.91 94.52 47.28 69
4 12/01/2024 21:11:49 -72.91, 43.60 85.18 12/01/2024 21:10:37 -72.88, 43.21 85.22 13.15 72
5 12/01/2024 22:01:13 73.00,-148.93 94.93 12/01/2024 22:00:00 73.00,-148.91 94.92 0.83 73
6 12/01/2024 22:50:33 -72.98, 18.77 85.09 12/01/2024 22:49:28 -72.98, 18.70 85.10 2.42 65
7 12/01/2024 23:39:56 73.02,-173.65 94.96 12/01/2024 23:38:53 73.00,-173.62 94.93 2.69 63
8 12/02/2024 00:29:16 -73.00, -5.95 85.06 12/02/2024 00:28:21 -72.99, -6.02 85.08 2.92 55
9 12/02/2024 01:18:38 72.99, 161.73 94.94 12/02/2024 01:17:46 73.00, 161.66 94.94 2.56 52
10 12/02/2024 02:07:59 -73.03, -30.67 85.03 12/02/2024 02:07:13 -73.04, -30.63 85.02 2.16 46
11 12/02/2024 02:57:21 73.02, 137.01 94.97 12/02/2024 02:56:39 73.00, 136.94 94.95 2.46 42
12 12/02/2024 03:46:42 -73.05, -55.39 85.00 12/02/2024 03:46:06 -73.04, -55.35 85.01 1.61 36
13 12/02/2024 04:36:03 73.04, 112.29 95.00 12/02/2024 04:35:30 73.06, 112.33 95.02 2.77 33
14 12/02/2024 05:25:24 -73.07, -80.11 84.97 12/02/2024 05:24:58 -73.05, -80.06 84.99 3.33 26
15 12/02/2024 06:14:46 73.06, 87.56 95.03 12/02/2024 06:14:23 73.06, 87.61 95.03 1.63 23
16 12/02/2024 07:04:06 -73.04,-104.73 84.99 12/02/2024 07:03:51 -73.05,-104.78 84.98 1.70 15
17 12/02/2024 07:53:29 73.08, 62.84 95.07 12/02/2024 07:53:16 73.06, 62.90 95.04 2.93 13
18 12/02/2024 08:42:49 -73.06,-129.45 84.95 12/02/2024 08:42:44 -73.05,-129.50 84.97 2.15 5
19 12/02/2024 09:32:11 73.05, 38.23 95.05 12/02/2024 09:32:09 73.07, 38.18 95.06 1.88 2
20 12/02/2024 10:21:32 -73.09,-154.18 84.92 12/02/2024 10:21:36 -73.10,-154.11 84.90 2.89 4
21 12/02/2024 11:10:54 73.08, 13.50 95.08 12/02/2024 11:11:02 73.07, 13.46 95.07 1.68 8
22 12/02/2024 12:00:15 -73.11,-178.90 84.89 12/02/2024 12:00:29 -73.11,-178.82 84.89 2.47 14
23 12/02/2024 12:49:37 73.10, -11.22 95.11 12/02/2024 12:49:54 73.12, -11.15 95.13 3.35 17
24 12/02/2024 13:38:57 -73.08, 156.48 84.91 12/02/2024 13:39:22 -73.11, 156.46 84.88 3.08 25
25 12/02/2024 14:28:20 73.12, -35.95 95.14 12/02/2024 14:28:47 73.12, -35.86 95.15 2.61 27
26 12/02/2024 15:17:40 -73.10, 131.76 84.88 12/02/2024 15:18:15 -73.11, 131.74 84.87 0.84 35
27 12/02/2024 16:07:02 73.10, -60.56 95.12 12/02/2024 16:07:40 73.13, -60.58 95.16 3.45 38
28 12/02/2024 16:56:23 -73.13, 107.04 84.84 12/02/2024 16:57:08 -73.11, 107.02 84.86 1.84 45
29 12/02/2024 17:45:45 73.12, -85.29 95.16 12/02/2024 17:46:33 73.13, -85.30 95.17 1.05 48
30 12/02/2024 18:35:06 -73.15, 82.31 84.81 12/02/2024 18:36:00 -73.17, 82.41 84.79 3.64 54
31 12/02/2024 19:24:28 73.14,-110.01 95.19 12/02/2024 19:25:26 73.13,-110.02 95.18 1.49 58
32 12/02/2024 20:13:48 -73.12, 57.70 84.83 12/02/2024 20:14:54 -73.12, 57.59 84.83 3.47 66
33 12/02/2024 21:03:10 73.11,-134.63 95.17 12/02/2024 21:04:19 73.13,-134.73 95.19 3.91 69
34 12/02/2024 21:52:33 -73.25, 32.76 84.70 12/02/2024 21:53:45 -73.22, 33.09 84.71 11.07 72
